Location: Anjeux
(47.8815°N, 6.2076°E)
Time: 23:41:46
(UTC+00:00)

ISS - Pass Details

Date: 05 October 2021
Orbit: 417 x 423 km, 51.6° (Epoch: 20 October)

Event Time Altitude Azimuth Distance (km) Brightness Sun altitude
Rises 18:14:49 0° 289° (WNW) 2,366 1.8 -12.3°
Reaches altitude 10° 18:17:08 10° 276° (W) 1,500 0.6 -12.7°
Maximum altitude 18:19:57 25° 219° (SW) 893 -1.7 -13.2°
Drops below altitude 10° 18:22:45 10° 162° (SSE) 1,496 -1.2 -13.7°
Enters shadow 18:23:10 - 158° (SSE) 1,642 -1.0 -13.7°
